CES2958 ZHCC-ZSHC

Flight info

Callsign CES2958
Flight time N/A
Altitude 33100
Route RUMGU W594 EPGOS W128 FYG B208 HFE R343 UPLEL W95 SAPIN A470 IGRAT
Aircraft A333/H-SDE3GHIJ2J3J5M1RVWXY/LB2D1

Departure

Time 2026-04-28 07:48
Airport Zhengzhou Xinzheng International Airport (ZHCC)

Arrival

Time N/A
Airport Hangzhou Xiaoshan International Airport (ZSHC)
Time Latitude Longitude Altitude Speed Heading
2026-04-28 07:25 34.52510 113.85053 509 ft 0 kts 292°
2026-04-28 07:38 34.52510 113.85054 509 ft 2 kts 292°
2026-04-28 07:38 34.52503 113.85072 509 ft 4 kts 292°
2026-04-28 07:38 34.52493 113.85102 509 ft 4 kts 292°
2026-04-28 07:38 34.52483 113.85133 509 ft 4 kts 292°
2026-04-28 07:39 34.52473 113.85161 509 ft 4 kts 292°
2026-04-28 07:39 34.52465 113.85186 509 ft 2 kts 292°
2026-04-28 07:39 34.52458 113.85215 509 ft 4 kts 265°
2026-04-28 07:39 34.52467 113.85242 509 ft 4 kts 216°
2026-04-28 07:40 34.52499 113.85259 509 ft 3 kts 201°
2026-04-28 07:40 34.52503 113.85261 509 ft 4 kts 202°
2026-04-28 07:42 34.52486 113.85253 509 ft 7 kts 202°
2026-04-28 07:42 34.52413 113.85217 509 ft 16 kts 202°
2026-04-28 07:42 34.52291 113.85156 509 ft 23 kts 202°
2026-04-28 07:42 34.52130 113.85076 509 ft 26 kts 202°
2026-04-28 07:43 34.51958 113.84989 509 ft 27 kts 202°
2026-04-28 07:43 34.51863 113.84935 508 ft 9 kts 224°
2026-04-28 07:43 34.51865 113.84868 508 ft 11 kts 289°
2026-04-28 07:43 34.51898 113.84766 508 ft 16 kts 291°
2026-04-28 07:44 34.51948 113.84617 508 ft 22 kts 292°
2026-04-28 07:44 34.52008 113.84441 508 ft 24 kts 292°
2026-04-28 07:44 34.52068 113.84266 508 ft 24 kts 292°
2026-04-28 07:44 34.52135 113.84071 507 ft 26 kts 292°
2026-04-28 07:45 34.52203 113.83867 508 ft 27 kts 292°
2026-04-28 07:45 34.52275 113.83654 508 ft 28 kts 293°
2026-04-28 07:45 34.52347 113.83445 508 ft 27 kts 292°
2026-04-28 07:45 34.52411 113.83256 508 ft 25 kts 292°
2026-04-28 07:46 34.52479 113.83056 509 ft 27 kts 292°
2026-04-28 07:46 34.52551 113.82847 509 ft 28 kts 292°
2026-04-28 07:46 34.52624 113.82633 509 ft 27 kts 292°
2026-04-28 07:46 34.52656 113.82510 509 ft 8 kts 257°
2026-04-28 07:47 34.52610 113.82466 509 ft 10 kts 207°
2026-04-28 07:47 34.52539 113.82434 508 ft 10 kts 180°
2026-04-28 07:47 34.52493 113.82489 507 ft 11 kts 115°
2026-04-28 07:47 34.52433 113.82662 508 ft 48 kts 112°
2026-04-28 07:48 34.52213 113.83310 508 ft 117 kts 112°
2026-04-28 07:48 34.51818 113.84477 619 ft 171 kts 111°
2026-04-28 07:48 34.51343 113.85853 1289 ft 187 kts 117°
2026-04-28 07:48 34.50589 113.87091 2457 ft 179 kts 133°
2026-04-28 07:49 34.49701 113.88126 3174 ft 181 kts 136°
2026-04-28 07:49 34.48709 113.89233 3514 ft 208 kts 136°
2026-04-28 07:49 34.47577 113.90525 3739 ft 239 kts 135°
2026-04-28 07:49 34.46343 113.91967 4195 ft 254 kts 135°
2026-04-28 07:50 34.45057 113.93488 4873 ft 259 kts 135°
2026-04-28 07:50 34.43765 113.95029 5617 ft 262 kts 135°
2026-04-28 07:50 34.42490 113.96552 6339 ft 265 kts 134°
2026-04-28 07:50 34.41231 113.98213 7086 ft 268 kts 126°
2026-04-28 07:51 34.40202 114.00113 7805 ft 272 kts 120°
2026-04-28 07:51 34.39237 114.02101 8550 ft 276 kts 119°
2026-04-28 07:51 34.38269 114.04117 9237 ft 280 kts 120°
2026-04-28 07:51 34.37276 114.06180 9705 ft 286 kts 119°
2026-04-28 07:52 34.36284 114.08249 9841 ft 286 kts 119°
2026-04-28 07:52 34.35278 114.10331 9853 ft 290 kts 119°
2026-04-28 07:52 34.34252 114.12447 9847 ft 293 kts 119°
2026-04-28 07:52 34.33224 114.14572 9856 ft 292 kts 118°
2026-04-28 07:53 34.32213 114.16664 9965 ft 292 kts 118°
2026-04-28 07:53 34.31185 114.18789 9981 ft 293 kts 118°
2026-04-28 07:53 34.30154 114.20913 9977 ft 293 kts 118°
2026-04-28 07:53 34.29123 114.23037 9979 ft 293 kts 118°
2026-04-28 07:54 34.28086 114.25166 9976 ft 293 kts 118°
2026-04-28 07:54 34.27055 114.27286 9978 ft 293 kts 118°
2026-04-28 07:54 34.26020 114.29412 9977 ft 293 kts 118°
2026-04-28 07:54 34.24984 114.31536 9978 ft 294 kts 119°
2026-04-28 07:55 34.23947 114.33663 9978 ft 294 kts 119°
2026-04-28 07:55 34.22898 114.35782 9977 ft 294 kts 121°
2026-04-28 07:55 34.21584 114.37678 10144 ft 297 kts 137°
2026-04-28 07:55 34.19807 114.39067 10482 ft 317 kts 153°
2026-04-28 07:56 34.17701 114.40188 10796 ft 344 kts 157°
2026-04-28 07:56 34.15399 114.41315 11137 ft 368 kts 158°
2026-04-28 07:56 34.12980 114.42494 11746 ft 381 kts 158°
2026-04-28 07:56 34.10494 114.43714 12444 ft 391 kts 158°
2026-04-28 07:57 34.07969 114.44962 13228 ft 397 kts 158°
2026-04-28 07:57 34.05430 114.46221 14122 ft 396 kts 159°
2026-04-28 07:57 34.02867 114.47487 14937 ft 399 kts 159°
2026-04-28 07:57 34.00298 114.48759 15773 ft 402 kts 160°
2026-04-28 07:58 33.97744 114.50034 16500 ft 402 kts 160°
2026-04-28 07:58 33.95157 114.51324 17210 ft 405 kts 160°
2026-04-28 07:58 33.92541 114.52632 18001 ft 408 kts 161°
2026-04-28 07:58 33.89917 114.53927 18808 ft 408 kts 162°
2026-04-28 07:59 33.87279 114.55231 19490 ft 411 kts 162°
2026-04-28 07:59 33.84628 114.56540 20157 ft 414 kts 163°
2026-04-28 07:59 33.81952 114.57862 20800 ft 417 kts 163°
2026-04-28 07:59 33.79260 114.59192 21435 ft 420 kts 163°
2026-04-28 08:00 33.76554 114.60530 22034 ft 422 kts 163°
2026-04-28 08:00 33.73826 114.61877 22628 ft 424 kts 164°
2026-04-28 08:00 33.71168 114.63188 23155 ft 426 kts 164°
2026-04-28 08:00 33.68405 114.64550 23639 ft 430 kts 165°
2026-04-28 08:01 33.65648 114.65896 24170 ft 432 kts 165°
2026-04-28 08:01 33.62852 114.67234 24648 ft 435 kts 165°
2026-04-28 08:01 33.60024 114.68580 25087 ft 439 kts 165°
2026-04-28 08:01 33.57208 114.69921 25538 ft 442 kts 166°
2026-04-28 08:02 33.54342 114.71285 25971 ft 446 kts 166°
2026-04-28 08:02 33.51458 114.72716 26403 ft 452 kts 162°
2026-04-28 08:02 33.48674 114.74585 26802 ft 466 kts 153°
2026-04-28 08:02 33.46148 114.77100 27199 ft 481 kts 142°
2026-04-28 08:03 33.43824 114.80019 27616 ft 487 kts 139°
2026-04-28 08:03 33.41573 114.83083 27995 ft 492 kts 137°
2026-04-28 08:03 33.39351 114.86224 28392 ft 496 kts 136°
2026-04-28 08:03 33.37126 114.89402 28772 ft 499 kts 136°
2026-04-28 08:04 33.34895 114.92580 29150 ft 502 kts 137°
2026-04-28 08:04 33.32770 114.95577 29466 ft 505 kts 137°
2026-04-28 08:04 33.30483 114.98777 29779 ft 509 kts 137°
2026-04-28 08:04 33.28160 115.02003 30095 ft 512 kts 137°
2026-04-28 08:05 33.25840 115.05210 30452 ft 515 kts 137°
2026-04-28 08:05 33.23477 115.08470 30767 ft 517 kts 137°
2026-04-28 08:05 33.21110 115.11730 31098 ft 520 kts 137°
2026-04-28 08:05 33.18740 115.14995 31530 ft 520 kts 137°
2026-04-28 08:06 33.16390 115.18231 32001 ft 519 kts 137°
2026-04-28 08:06 33.14030 115.21481 32441 ft 519 kts 137°
2026-04-28 08:06 33.11650 115.24755 32866 ft 519 kts 137°
2026-04-28 08:06 33.09306 115.27973 33148 ft 520 kts 137°
2026-04-28 08:07 33.04688 115.34308 33204 ft 516 kts 138°
2026-04-28 08:07 32.99984 115.40774 33202 ft 517 kts 135°
2026-04-28 08:08 32.96286 115.48246 33201 ft 532 kts 118°
2026-04-28 08:08 32.93557 115.56370 33201 ft 535 kts 115°
2026-04-28 08:09 32.90989 115.64690 33203 ft 536 kts 115°
2026-04-28 08:09 32.88225 115.72590 33205 ft 528 kts 126°
2026-04-28 08:10 32.84033 115.79524 33201 ft 519 kts 135°
2026-04-28 08:10 32.79497 115.86035 33199 ft 517 kts 137°
2026-04-28 08:11 32.74903 115.92444 33200 ft 517 kts 137°
2026-04-28 08:11 32.70448 115.98682 33211 ft 515 kts 136°
2026-04-28 08:12 32.65952 116.05017 33210 ft 515 kts 136°
2026-04-28 08:12 32.61304 116.11553 33210 ft 520 kts 136°
2026-04-28 08:13 32.56659 116.18093 33210 ft 520 kts 136°
2026-04-28 08:13 32.52102 116.24662 33209 ft 521 kts 135°
2026-04-28 08:14 32.47565 116.31289 33210 ft 521 kts 135°
2026-04-28 08:14 32.43071 116.37839 33213 ft 521 kts 135°
2026-04-28 08:15 32.38594 116.44334 33221 ft 521 kts 135°
2026-04-28 08:15 32.33998 116.50977 33221 ft 521 kts 135°
2026-04-28 08:16 32.29408 116.57601 33219 ft 521 kts 135°
2026-04-28 08:16 32.24853 116.64165 33219 ft 521 kts 135°
2026-04-28 08:17 32.20292 116.70726 33220 ft 521 kts 135°
2026-04-28 08:17 32.15793 116.77106 33219 ft 520 kts 136°
2026-04-28 08:18 32.11118 116.83600 33227 ft 520 kts 137°
2026-04-28 08:18 32.06486 116.90011 33229 ft 520 kts 136°
2026-04-28 08:19 32.01830 116.96454 33230 ft 520 kts 137°
2026-04-28 08:19 31.97186 117.02884 33226 ft 521 kts 136°
2026-04-28 08:20 31.92566 117.09300 33229 ft 522 kts 136°
2026-04-28 08:20 31.88050 117.15567 33227 ft 522 kts 136°
2026-04-28 08:21 31.83518 117.21841 33229 ft 521 kts 136°
2026-04-28 08:21 31.80191 117.26838 33226 ft 528 kts 127°
2026-04-28 08:22 31.78468 117.30665 33226 ft 536 kts 116°
2026-04-28 08:22 31.77356 117.34863 33226 ft 542 kts 104°
2026-04-28 08:22 31.76423 117.43554 33226 ft 545 kts 97°
2026-04-28 08:23 31.75872 117.52260 33229 ft 546 kts 96°
2026-04-28 08:23 31.75495 117.58567 33284 ft 545 kts 96°
2026-04-28 08:24 31.75022 117.65912 33229 ft 546 kts 96°
2026-04-28 08:24 31.74311 117.76117 33228 ft 547 kts 97°
2026-04-28 08:25 31.73670 117.85032 33229 ft 547 kts 97°
2026-04-28 08:26 31.72698 117.98386 33228 ft 547 kts 97°
2026-04-28 08:26 31.72042 118.07287 33228 ft 547 kts 97°
2026-04-28 08:27 31.71507 118.14676 33228 ft 547 kts 97°
2026-04-28 08:27 31.70954 118.22637 33228 ft 547 kts 97°
2026-04-28 08:28 31.70231 118.33039 33227 ft 546 kts 96°
2026-04-28 08:28 31.69607 118.41871 33228 ft 546 kts 96°
2026-04-28 08:29 31.68974 118.50727 33228 ft 545 kts 97°
2026-04-28 08:29 31.68356 118.59281 33226 ft 544 kts 97°
2026-04-28 08:30 31.67822 118.66601 33228 ft 544 kts 97°
2026-04-28 08:30 31.67168 118.75457 33228 ft 544 kts 97°
2026-04-28 08:31 31.66511 118.84307 33227 ft 543 kts 97°
2026-04-28 08:31 31.65432 118.92989 33226 ft 537 kts 109°
2026-04-28 08:31 31.64121 118.97021 33016 ft 532 kts 121°
2026-04-28 08:32 31.62215 119.00643 32765 ft 524 kts 133°
2026-04-28 08:32 31.59765 119.03735 32514 ft 514 kts 144°
2026-04-28 08:32 31.57036 119.06394 32260 ft 511 kts 148°
2026-04-28 08:32 31.54223 119.08924 32017 ft 510 kts 149°
2026-04-28 08:33 31.51375 119.11383 31766 ft 511 kts 150°
2026-04-28 08:33 31.48513 119.13824 31515 ft 511 kts 150°
2026-04-28 08:33 31.45629 119.16288 31259 ft 512 kts 150°
2026-04-28 08:33 31.42788 119.18730 31010 ft 512 kts 149°
2026-04-28 08:34 31.39916 119.21212 30759 ft 512 kts 149°
2026-04-28 08:34 31.37062 119.23691 30503 ft 509 kts 149°
2026-04-28 08:34 31.34226 119.26161 30246 ft 507 kts 149°
2026-04-28 08:34 31.31408 119.28618 29865 ft 503 kts 149°
2026-04-28 08:35 31.28616 119.31053 29128 ft 500 kts 149°
2026-04-28 08:35 31.25877 119.33437 28379 ft 497 kts 149°
2026-04-28 08:35 31.23098 119.35854 27619 ft 494 kts 149°
2026-04-28 08:35 31.20672 119.37961 26966 ft 491 kts 149°
2026-04-28 08:36 31.18056 119.40241 26244 ft 487 kts 149°
2026-04-28 08:36 31.15411 119.42551 25506 ft 484 kts 148°
2026-04-28 08:36 31.12757 119.44872 24746 ft 481 kts 148°
2026-04-28 08:36 31.10538 119.46812 24115 ft 478 kts 148°
2026-04-28 08:37 31.08047 119.48986 23412 ft 474 kts 148°
2026-04-28 08:37 31.05519 119.51192 22689 ft 470 kts 148°
2026-04-28 08:37 31.03056 119.53340 21960 ft 466 kts 148°
2026-04-28 08:37 31.00487 119.55578 21217 ft 461 kts 148°
2026-04-28 08:38 30.97942 119.57795 20479 ft 455 kts 148°
2026-04-28 08:38 30.95412 119.59996 19736 ft 450 kts 148°
2026-04-28 08:38 30.93008 119.62086 19043 ft 444 kts 148°
2026-04-28 08:38 30.91895 119.63055 18717 ft 441 kts 149°
2026-04-28 08:39 30.90392 119.64362 18272 ft 437 kts 149°
2026-04-28 08:39 30.88043 119.66401 17602 ft 431 kts 149°
2026-04-28 08:39 30.85786 119.68360 16943 ft 424 kts 149°
2026-04-28 08:39 30.83508 119.70335 16276 ft 417 kts 149°
2026-04-28 08:40 30.81203 119.72333 15594 ft 410 kts 149°
2026-04-28 08:40 30.78930 119.74302 14925 ft 403 kts 149°
2026-04-28 08:40 30.76699 119.76233 14273 ft 396 kts 149°
2026-04-28 08:40 30.74510 119.78127 13616 ft 388 kts 149°
2026-04-28 08:41 30.72395 119.79957 12982 ft 381 kts 148°
2026-04-28 08:41 30.70327 119.81802 12349 ft 375 kts 147°
2026-04-28 08:41 30.68288 119.83658 11703 ft 370 kts 147°
2026-04-28 08:41 30.66328 119.85434 11083 ft 363 kts 147°
2026-04-28 08:42 30.64325 119.87194 10443 ft 357 kts 147°
2026-04-28 08:42 30.62334 119.88875 9805 ft 352 kts 147°
2026-04-28 08:42 30.60343 119.90480 9161 ft 346 kts 147°
2026-04-28 08:42 30.58394 119.91988 8809 ft 319 kts 147°
2026-04-28 08:43 30.56634 119.93285 8828 ft 287 kts 149°
2026-04-28 08:43 30.54888 119.94271 8861 ft 271 kts 155°
2026-04-28 08:43 30.53158 119.95192 8868 ft 277 kts 154°
2026-04-28 08:43 30.51400 119.96129 8865 ft 278 kts 154°
2026-04-28 08:44 30.49618 119.97085 8868 ft 282 kts 154°
2026-04-28 08:44 30.47888 119.98015 8866 ft 280 kts 155°
2026-04-28 08:44 30.46099 119.98978 8864 ft 279 kts 154°
2026-04-28 08:44 30.44354 119.99923 8806 ft 279 kts 154°
2026-04-28 08:45 30.42595 120.00873 8442 ft 278 kts 154°
2026-04-28 08:45 30.40827 120.01822 7831 ft 283 kts 154°
2026-04-28 08:45 30.39020 120.02781 7205 ft 288 kts 154°
2026-04-28 08:45 30.37192 120.03728 6579 ft 291 kts 154°
2026-04-28 08:46 30.35356 120.04658 6239 ft 283 kts 154°
2026-04-28 08:46 30.33576 120.05540 5987 ft 274 kts 154°
2026-04-28 08:46 30.31841 120.06386 5640 ft 269 kts 154°
2026-04-28 08:46 30.30122 120.07218 5216 ft 268 kts 154°
2026-04-28 08:47 30.28411 120.08040 4791 ft 267 kts 154°
2026-04-28 08:47 30.26690 120.08860 4359 ft 266 kts 154°
2026-04-28 08:47 30.24978 120.09667 4014 ft 264 kts 154°
2026-04-28 08:47 30.23272 120.10466 3902 ft 265 kts 154°
2026-04-28 08:48 30.21567 120.11267 3897 ft 265 kts 154°
2026-04-28 08:48 30.19854 120.12064 3900 ft 266 kts 154°
2026-04-28 08:48 30.18134 120.12859 3899 ft 265 kts 154°
2026-04-28 08:48 30.16420 120.13644 3896 ft 266 kts 155°
2026-04-28 08:49 30.14755 120.14541 3897 ft 262 kts 142°
2026-04-28 08:49 30.13655 120.16125 3901 ft 252 kts 107°
2026-04-28 08:49 30.13576 120.18059 3903 ft 237 kts 72°
2026-04-28 08:49 30.14310 120.19683 3904 ft 221 kts 57°
2026-04-28 08:50 30.15109 120.21135 3833 ft 210 kts 60°
2026-04-28 08:50 30.15788 120.22590 3607 ft 203 kts 64°
2026-04-28 08:50 30.16413 120.24045 3281 ft 202 kts 63°
2026-04-28 08:50 30.17041 120.25466 2963 ft 199 kts 63°
2026-04-28 08:51 30.17656 120.26851 2696 ft 187 kts 62°
2026-04-28 08:51 30.18207 120.28096 2475 ft 175 kts 62°
2026-04-28 08:51 30.18743 120.29312 2240 ft 172 kts 62°
2026-04-28 08:51 30.19282 120.30534 2008 ft 164 kts 62°
2026-04-28 08:52 30.19784 120.31670 1806 ft 154 kts 62°
2026-04-28 08:52 30.20258 120.32743 1609 ft 150 kts 62°
2026-04-28 08:52 30.20721 120.33792 1403 ft 143 kts 62°
2026-04-28 08:52 30.21158 120.34784 1224 ft 131 kts 62°
2026-04-28 08:53 30.21555 120.35688 1030 ft 121 kts 61°
2026-04-28 08:53 30.21926 120.36528 872 ft 115 kts 62°